Race Results for
2010 Gravity Open DH Race at Plattekill Mtn
Roxbury, NY
(Event Information)
View By:
Downhill on 05/23/2010

Note: Ranking points are NOT upgrade points. An explanation of ranking points can be found here.


Men - Cat 3 - Junior - 15-18

 Place Points NameCity, StateTime USAC #BibTeam
1540.00Matthew Mastrodomenico   Florence, SC00:03:55.070 282825  307 Wachusett Brewery
2556.67Justice Khan   Yonkers, NY00:04:09.180 319774  304 
3573.34Kyle Barrett   North Salem, NY00:04:09.650 296926  312 Klank Racing
4Travis Blackner   00:04:29.850  311 

Men - Cat 3 - Senior - 19-29

 Place Points NameCity, StateTime USAC #BibTeam
1377.56Andrew Slowey   Martinsville, NJ00:03:13.620 277539  303 
2Ian McNaughton   00:03:42.910  306 Burlingame Racing
3519.18jason mass   Ballston Spa, NY00:03:53.420 259639  308 Elevate Cycles
4589.99Ryan Bolly   Agawam, MA00:03:56.420 328550  313 
DNFDavid Tse   Watervliet, NY 270382  301 

Men - Cat 3 - Master - 30-39

 Place Points NameCity, StateTime USAC #BibTeam
1William Bazzono   00:03:49.450  310 Beacon Bombers
DNFDillon Kirchner     302 

Men - Cat 3 - Master - 40-99

 Place Points NameCity, StateTime USAC #BibTeam
1Nik Caputo   00:03:26.450  309 Beacon Bombers
2Anthony LaRocca   Windham, NY00:05:59.390 316670  300 Table Rock Tours

Men - Cat 2 - Junior - 1-18

 Place Points NameCity, StateTime USAC #BibTeam
1298.58Nikolas Dudukovich   Port Matilda, PA00:02:56.050 305595  219 gamut USA/ Leatt
2Gregory Ciralo   00:03:18.030  221 Elerate Cycles
3492.86Justin Wanke   Salisbury, VT00:03:24.050 267509  228 Green Mountain DH
4Steve Neal   00:03:39.140  224 Nissan Of Keene
DNFDerek Mushro   Westport, CT 297733  227 DAH

Men - Cat 2 - Senior - 19-29

 Place Points NameCity, StateTime USAC #BibTeam
1Steve Estabrook   00:02:52.630  226 
2Matt Hargreanes   00:03:01.730  229 
3Sam Holton   00:03:05.530  214 
4449.21Nathan Roy   Hardwick, MA00:03:05.960 286976  200 
5Micheal Beavlieu   00:03:05.990  230 
6461.59steven czaplicki   Trenton, NJ00:03:09.130 302483  201 Knapp's Cycelry
7467.78Kip Denoyer   Medford, MA00:03:13.980 303254  216 
8473.97Jonathan Westland   Keene, NH00:03:14.270 193974  218 Nissan of Keene/Go Pro
9Chris Eckerson   00:03:14.710  217 
10486.35Craig Zarzycki   Saratoga Springs, NY00:03:16.130 297680  209 
11492.54Erik Campbell   Ellington, CT00:03:16.890 316200  220 
12Kristopher Seipp   00:03:21.800  234 Delta
13504.92Charles McCloskey   Howard Beach, NY00:03:30.530 251693  205 
14Jason Boyko   00:03:32.560  232 Ian Brown
15517.30vincent pellicane   Morristown, NJ00:03:33.800 313524  207 Efinger Sports/Leatt
16523.49Brendan Silkey   Hubbardston, MA00:03:34.260 298404  210 FTW Factory racing
17529.68Michael Klausen   Johnstown, NY00:03:40.030 310974  236 Division 26 Clothing
18535.87Zack Taylor   Ballston Spa, NY00:03:45.600 296856  235 Blue Sky Bikes
19542.06anthony coluccio   Hamilton, NJ00:03:46.640 316684  222 Knapps
20548.25Chancey Phillips   Canajoharie, NY00:04:11.900 286032  231 
DNFKurt Houben   Bainbridge, NY 316132  203 

Men - Cat 2 - Master - 30-39

 Place Points NameCity, StateTime USAC #BibTeam
1499.48Luke Wenschhof   Fairport, NY00:03:03.110 298954  208 
2529.65Andy Haskell   Jaffrey, NH00:03:19.170 283641  215 661/Spy/The Sock Guy/Magura/Sunline
3Chad Haniak   00:03:21.900  202 
4589.99William Downes   Astoria, NY00:05:29.840 213794  233 www.brooklynbikes.com
DNFGino Groft   Hanover, PA 150875  223 

Men - Cat 2 - Master - 40-99

 Place Points NameCity, StateTime USAC #BibTeam
1417.74Frank Endreson    Haledon, NJ00:03:23.700 290497  211 TTC
2503.87James MacNaughton   Albany, NY00:03:34.010 237322  204 Elevate Cycles/FTW
3590.00Bill Burlingame   Feura Bush, NY00:03:53.120 5548  213 CK Cycles

Men - Cat 1 - Junior - 1-18

 Place Points NameCity, StateTime USAC #BibTeam
1222.59Bryson Martin   Castaic, CA00:02:59.060 295629  139 Young Guns/Marzocchi
2240.33Nate Furbee   Los Osos, CA00:03:06.580 215754  109 Fox/Baywood/WT
3258.07Samuel Pensler   Chevy Chase, MD00:03:07.630 262060  164 Grom Racing
4275.81Trevor Trinkino   Evergreen, CO00:03:08.460 242852  138 Yeti RPM
5293.55Alexandre Couture   Conway, NH00:03:11.970 266641  105 Giant Bicycles
6311.29Austin Benge   Angwin, CA00:03:12.220 280063  102 Backbone Racing
7329.03Logan Mulally   Reading, PA00:03:12.750 247832  135 Troy Lee Designs
8346.77Alec Toney   Basalt, CO00:03:14.440 278324  120 Team Geronimo/Banshee Bikes
9364.51Teddy Benge   Carbondale, CO00:03:19.560 227700  101 Team Geronimo/Banshee Bikes
10382.25Andrew Schumer   Middlebury, VT3:22.23 246020  170 Green Mountain DH
11399.99David Milkiewicz   Troy, NY00:03:24.600 280668  173 Gravity Project
12417.73Alex Bowdish   Weybridge, VT00:03:24.700 231814  137 Green Mountain DH
13435.47David Renne   Littleton, CO00:03:25.810 257929  118 Mojo Wheels
14453.21Max Hautaniemi   Rochester, NY00:03:26.990 272975  150 Gravity Project
15470.95Peter McNulty   Walpole, MA00:03:27.030 244558  114 
16488.69Hunter Budd   Boone, NC00:03:30.770 268947  148 Sinister United Freeride
17506.43Cody Wilkins   Lew Beach, NY00:03:31.990 266472  125 Project Gravity/Overlook
18524.17Ray Syron   Rockport, MA00:03:34.020 282084  133 Sinister United Freeride
19541.91Anthony Marino   Newbury Park00:03:59.060 233908  111 Marzzochi
DNFRobert Lewis   Pittsburgh, PADNS 296992  177 7 Spring/Transition

Men - Cat 1 - 19-29

 Place Points NameCity, StateTime USAC #BibTeam
1329.06Anthony Coneski   Beacon , NY00:03:03.960 194171  142 Beacon Bikes/Beacon Cycles/Nema
2334.94Troy D'Elia   Moreno Valley, CA00:03:05.160 224206  106 Foes Racing/Nema
3340.82Ryan Gardner   Marlboro, NY00:03:13.490 295562  143 Beacon Bomber/Beacon Cycles
4346.70Peter John Mihalick   Jersey City, NJ00:03:13.880 249132  140 Giant/HBG/Diablo
5352.58matt dahlmeyer   East Haven, CT00:03:14.160 249603  175 Action Sports/BSN/Smith
6Mitch Chubey   00:03:15.550  181 Morpheus Cycles
7364.34Sam Chipkin   Troy, NH00:03:15.790 298988  151 Drummer Racing
8370.22Nik Patalano   Reading, MA00:03:17.160 201900  171 Spooky Bikes
9376.10Kyle Karpuska   Old Lyme, CT00:03:17.760 269076  159 Team VonCooper/GT
10381.98Eric Bercume   Banner Elk, NC00:03:18.960 280672  156 
11387.86John (Jack) Williams   Waterbury Center, VT00:03:19.880 164519  155 Drummer Racing/CrankBros/Andy's GCA
12393.74Michael Stock   Cromwell, CT00:03:23.640 181463  176 Ghostship Clothing
13399.62Daniel Phillips   Bridgeport, CT00:03:24.190 227999  117 Radical Racing
14405.50Kyle Kimble   Bartonsville, PA00:03:25.880 265261  112 
15411.38Max Syron   Rockport, MA00:03:25.980 282083  132 Sinster/United Freeride
16417.26Chris Patton   Westport, CT00:03:26.790 252550  134 Gravity Project
17423.14David Gambardella   East Haven, CT00:03:32.470 284793  108 
18429.02Tylor Bowes   Spencer, MA00:03:33.860 279816  179 Old Soul Speed Shop
19434.90Allen Bercume   Spencer, MA00:03:33.930 296540  180 Old Soul Speed Shop
20440.78Halston Mendes   Newington, CT00:03:35.730 265091  115 Team Action Sports
21446.66Eric Allocco   Hamden, CT00:03:37.510 262124  100 Intense Grass Roots
22452.54Jacob Roy   Hardwick, MA00:03:40.570 282826  157 
23458.42Stephen Ido   Wernersville, PA00:03:41.930 175933  149 Delta House Racing/Nema/Utopia
24464.30Chris Bierl   East Aurora, NY00:03:47.650 248913  158 Delta House Racing
25470.18Kevin Cockerham   Burlington, NJ00:03:48.400 213780  168 Sinical Racing/sonnbike.com
26476.06Roderick Haske   Downingtown, PA00:03:57.610 296872  126 Lowriders
27481.94Christopher Hoey   Bellmore, NY00:04:01.310 168591  129 D2C Media
28487.82Jonathan Gillespie   Audubon, PA00:04:06.650 246537  110 Gravity Project
DNFChris Brown   Manchester, NH 174623  104 Hot Fire Racing
DNFJason Nixon   Lake Orion, MI 194468  122 Sicklines

Men - Cat 1 - Master - 30-39

 Place Points NameCity, StateTime USAC #BibTeam
1386.42Neil Snyder   Berne, NY00:03:12.950 298444  162 Down Tube Cycles/VanCooper
2402.34David Townsend   Queensbury, NY00:03:22.960 138047  124 Gravity Project
3418.26Shawnee McGovern   Boulder, CO00:03:24.330 83560  145 Orbit/Smac
4434.18Donald Roberts   Sanford, ME00:03:25.950 184818  127 FTW Factory Racing
5450.10Kyle Kutzler   Saylorsburg, PA00:03:28.570 162445  113 KSquare Racing
6466.02Hernane Alves   Newark, NJ00:03:33.200 283245  160 Team Brazil
7481.94Michael Mullen   Hudson Falls, NY00:03:35.350 163398  136 Elevate Cycles/Livewire Energy
8497.86Casey Coull   Douglassville, PA00:03:35.610 234632  172 Lowriders
9513.78Lane Boertmann   Toms River, NJ00:03:41.140 299762  174 Beachwood Bikes
10529.70Tim Frederick   Middletown, CT00:03:49.540 290658  107 Team Action Sports
11545.62Neal Demaio   Ulster Park, NY00:04:12.570 211044  161 Delta House
12561.54Jon Siverling   Clifton Park, NY00:04:20.190 213798  147 Delta HOuse/Leatt
13577.46Chad Lawrence   Lake Katrine, NY00:04:38.940 20548  144 
DNFSean Tarricone   Belmar, NJ 173561  116 Crash Or Win Racing
DNFJason Halverson   Brookfield, CT 226996  178 GT Bicycles

Men - Cat 1 - Master - 40-99

 Place Points NameCity, StateTime USAC #BibTeam
1Heath Buedeker   00:03:24.630  153 Sierra Nevada Brewing
2352.98Jacob Dallegro   Happon Township, NJ00:03:29.700 154787  167 Sinical Racing
3370.56Ernest Reale   Haines Falls, NY00:03:38.050 29308  152 Plattekill
4388.14Steven Battaglini   Ballston Spa, NY00:03:48.180 181070  165 Elevate/Chumba
5405.72Douglass Wilson   Keene, NH00:03:51.530 280148  166 Drummer Racing
6423.30Stefan Daney   Stafford, VA00:03:53.780 282817  131 Inspired Athletes
7440.88Paul La Barbera   Freehold, NY00:04:01.220 261964  169 
8458.46John Pallotto   Cheshire, CT00:04:03.120 27111  146 Morewood/Royal Racing
9476.04George Ulmer   Troy, NY00:04:04.180 197486  123 
10493.62Ted Briggs   Lebanon, PA00:04:35.360 121011  103 JB Mountain Bikes
11511.20Paul Makowski   Rochester, NY00:06:24.220 296852  163 
DNFTodd Plessel   Raleigh, NC 184558  121 
DNFRichard Rude   Redding, CT 189124  119 Cycle Center Racing Team

Men - Pro

 Place Points NameCity, StateTime USAC #BibTeam
1Andrew Neethling   2:43.48   Trek World Racing
2Bryn Atkinson   2:44.47   Transition Racing
3Justin Leov   2:45.20   Trek World Racing
4242.48Duncan Riffle   Santa Barbara, CA2:47.44 146687   Giant Factory Team
5Kieran Bennett   2:47.99   DRD/Tomac
6245.68Logan Binggeli   Saint George, UT2:48.91 213148   KHS Bicycles
7Jared Rando   2:49.28   Giant
8248.88John Swanguen   San Diego2:49.79 175203   ODI/X-Fusion/Intense
9250.48Michael Sylvestri   Truckee2:49.83 288977   Specialized All Ride
10252.08Jurgen Beneke   Kingston, NY2:51.35 154993   OldWorldPlaster.net
11253.68Bradley Benedict   Morgan Hill, CA2:51.76 198527   Specialized
12255.28Luke Strobel   Issaquah, WA2:51.95 181052   MS/Evil
13256.88Ryan Condrashoff   Larkspur, CA2:52.76 197784   ODI/X-Fusion/Intense
14258.48Kevin Aiello   Rancho Santa Margarita, CA2:52.97 245409   
15260.08Chris Heath   Denver, CO2:53.11 177708   KHS
15261.68Graeme Pitts   Nevada City, CA2:53.11 232939   Geronimo/Banshee
17263.28Richard Rude JR   Redding, CT2:53.77 209311   Specialized Allride
18264.88Lars Sternberg   Ferndale, WA2:53.88 185351   Transition Racing
19266.48Geritt Beytagh   Fletcher, NC2:54.28 188092   Morewood Bikes USA
20268.08Ben Furbee   Los Osos, CA2:54.51 215234   Fox/Baywood/WT
21269.68Eliot Jackson   Westlake Village, CA2:55.19 297858   
22271.28Jason Memmelaar   Chester, NY2:56.15 161139   Giant/HGB/Smith/5ten
23272.88Ethan Quehl   Loganville, GA2:56.95 175816   Gravity East
24274.48Sean McClendon   Pine Valley, CA2:57.14 159018   ODI/X-Fusion/Intense
25276.08David KlaassenVanOorschot   Riverside, CA2:57.96 154642   ODI/Intense/Nema
26277.68Brian Buell   Jamestown, CO2:59.06 218052   Geronimo/Banshee
27Lear Miller   2:59.40   Demon Dirt
28280.88Naish Ulmer   Hood River, OR2:59.94 175253   KHS/Spy Optics/Dark
29282.48Blake Carney   Camarillo, CA3:00.59 200586   KHS/Dean Optics
30284.08Brad Oien   Fountain Valley, CA3:00.65 199509   ODI/X-Fusion/Intense
31285.68George Ryan   Vernon, NJ3:00.88 136378   Jamis/Pro-Tec/Vans
32287.28Will Collins   West Hartford, CT3:01.02 231811   Spooky Bikes
33Alejandro Ortiz   3:01.10   Morpheous Cycles
34290.48Timothy Price   Great Falls, VA3:01.25 194155   Grom Racing
35292.08Trevyn Newpher   Steamboat Springs, CO3:01.37 189058   Snowshoe Bike Park/S
36293.68Robin Baloochi   Eugene, OR3:01.64 144813   DRD Tomac
37295.28Benjamin Moody   Rumney, NH3:03.00 24837   POC Helemts/Trek
38296.88John Keep   Ramona, CA3:03.49 251434   DRD Tomac
39298.48Chris Higgerson   Deansboro, NY3:04.96 208966   Giant/HBG
40300.08Luke Snyder   Cohoes, NY3:06.35 266362   DownTube/VonCooper
41301.68Christopher Mari   Somers Ny3:06.88 249170   Zeal Optics/Champion
42303.28Erik Hudson   Warwick, NY3:07.84 176535   Brooklyn Machine Wor
43304.88Amado Stachenfeld   Berkeley, CA3:08.73 209079   amadomtb.com
44306.48Brian Yannuzzi   Coatesville, PA3:08.93 212921   Loweriders Derailed
45308.08Zachary Faulkner   Spofford, NH3:09.06 231815   Drummer Racing/Evil
46309.68Oliver Levick   Troy, NH3:09.19 195365   Drummer Racing
47311.28Logan James   Durango, CO3:09.67 215000   Team Krunk Shox
48312.88Blair Reed   Boulder, CO3:09.81 201148   
49314.48Tim White   Burlington, VT3:11.19 201948   VonCooper/GT/HBG
50316.08Matty Komar   Rumson, NJ3:12.51 279411   
51317.68Leif Lorenzen   Croton On Hudson, NY3:14.17 168141   
52319.28Justin Beers   Syracuse, NY3:16.28 247799   
53320.88Benedict Treglia   York, PA3:16.42 111141   Foes Racing/661/Sunl
54322.48Evan Mallory   Hensonville, NY3:17.05 267331   Windham Mountain Out
55324.08Alex Moschitti   Fairless Hills, PA3:17.84 297556   Team Giant/HBG
56325.68Erik Gosselin   Bedford, NH3:18.45 257554   Gravity Project
57327.28Danial Ferreira   Milford, CT3:22.42 98389   Action Sports/Smith/
58David Haas   3:22.74   Sam Adams
59330.48Michael Buell   Nederland, CO3:46.59 202502   Team Geronimal/Bansh
60332.08Heikki Hall   Durango, CO5:14.00 117452   e-thirteen/commenc
DNFQuinton Spaulding   Henderson, NVDNS 165835   KHS Bicycles
DNFGeoffrey Ulmer   Troy, NYDNS 197485   Gravity Project
DNFAdam Morse   Burlington, VTDNF 216324   Voncooper/GT/HBG

Women - Cat 3 - Junior - 1-18

 Place Points NameCity, StateTime USAC #BibTeam
1Olivia Allison   00:05:05.520  305 United Freeride/Plattekill

Women - Cat 2

 Place Points NameCity, StateTime USAC #BibTeam
1402.08Taylor Allison   Roxbury, NY00:03:31.970 269964  212 United Freeride/Plattekill
2Kim Murrell   00:03:40.710  206 Larry Hill Ford/Scott's Bikes
3566.02Elixandria Porru   New Rochelle, NY00:04:40.570 317126  225 Go Pro/O'Neal

Women - Cat 1

 Place Points NameCity, StateTime USAC #BibTeam
1399.10Lauren Daney   Stafford, VA00:03:59.560 282816  130 
2449.54Becky Gardner   Marlboro, NY00:04:04.840 298049  141 Beacon Cycles/Nema
3499.98Rebecca Bagley   Sanford, ME00:04:22.900 283098  128 FTW Factory RAcing/661/Azonic/Ernies/SDG
4550.42Felicia Kearsley   Haines Falls, NY00:05:01.420 300218  154 Windham Mtn Outfitters

Women - Pro

 Place Points NameCity, StateTime USAC #BibTeam
1Tracy Mosley   3:00.49   Trek World Racing
2326.21Melissa Buhl   Chandler, AZ3:05.47 75536   KHS
3370.55Jill Kintner   Seattle, WA3:09.14 186217   Transition Racing
4414.89Darian Harvey   Durango, CO3:29.93 195177   Vixen Racing
5459.23Rae Gandolf   Zanesville, OH3:45.12 272840   Team Sierra Nevada

Report missing or incorrect license numbers

Volkswagen
ShimanoUSACDFSierra NevadaBonk BreakerSpy
UCI USA Cycling is the official governing body for all disciplines of competitive cycling in the United States. The 501c3, membership-based organization aims both to achieve sustained success in international cycling competition and to grow competitive cycling in America while delivering an exceptional customer experience.
View Children's Online Privacy Protection Policy
US Olympic Committee